Location: Newark
(22.3060°N, 114.2134°E)
Time: 06:56:25
(UTC+00:00)

Explorer 11/Cluster Stage 4 - Pass Details

Date: 28 July 2021
Orbit: 467 x 1256 km, 28.8° (Epoch: 24 September)

Event Time Altitude Azimuth Distance (km) Brightness Sun altitude
Rises 05:36:38 0° 283° (WNW) 4,076 10.4 74.0°
Reaches altitude 10° 05:39:48 10° 288° (WNW) 3,030 10.0 73.3°
Maximum altitude 05:47:01 50° 2° (N) 1,259 8.4 71.6°
Drops below altitude 10° 05:52:57 10° 77° (ENE) 2,496 9.1 70.2°
Sets 05:55:20 0° 83° (E) 3,309 9.6 69.7°
